GFSNGP_sfc_temp_159.txt.gz
Temp
74 77 77 77 76 76 73 76 70 77 74 83 85 86 89 89 85 83 82 82 83 82 81 81 81 81 83 84 84 83 82 81 80 78 78 77 75 77 77 75 74 76 76 76
69 76 75 72 77 78 76 79 75 80 77 87 90 85 83 85 84 83 83 84 84 83 81 80 80 80 82 82 81 82 81 79 79 77 75 74 74 74 75 74 74 75 76 76
64 73 72 64 72 76 77 79 79 72 80 89 83 79 82 85 84 85 87 86 82 81 80 79 81 81 81 81 80 79 79 79 76 74 73 74 74 73 73 73 74 74 75 75
65 65 55 74 84 82 78 79 79 82 83 81 85 87 85 86 86 84 87 87 83 83 82 82 82 82 83 81 78 79 76 75 75 74 74 74 72 72 73 73 73 74 74 74
61 62 69 73 73 76 74 74 82 80 82 86 85 80 82 82 83 85 85 84 83 83 82 80 81 81 80 79 78 77 76 76 75 75 74 73 72 72 73 73 73 74 75 73
58 59 57 74 79 81 83 70 86 84 82 84 79 77 86 79 80 80 80 80 80 81 81 79 78 79 78 77 77 76 77 76 75 75 74 74 74 73 73 74 74 77 74 74
60 60 68 76 76 80 67 74 87 84 82 84 77 84 76 76 76 77 77 77 79 80 79 76 78 79 77 76 76 77 76 75 74 74 75 75 74 73 73 73 74 72 72 72
61 58 57 74 73 73 78 75 76 78 82 79 74 72 74 74 74 76 76 78 79 77 75 76 77 78 75 76 75 76 75 74 74 74 76 75 73 72 72 72 72 71 71 71
67 68 69 72 71 73 71 73 73 74 75 74 72 71 72 71 73 74 75 76 79 77 74 73 75 77 74 72 73 70 70 71 72 74 75 74 72 71 73 72 74 73 72 71
66 67 68 68 70 71 72 73 74 75 74 74 71 72 71 72 74 73 74 74 76 75 73 71 73 72 72 70 71 71 70 70 71 72 70 72 73 74 75 74 72 70 70 68
67 63 67 68 70 71 72 73 74 75 74 73 73 72 71 70 70 71 72 74 75 73 72 72 72 72 72 70 71 71 71 71 71 68 67 69 67 71 75 71 66 71 72 72
68 67 71 68 70 73 71 71 73 73 70 72 75 72 73 71 72 72 72 73 73 74 73 73 72 71 71 69 72 71 70 70 67 64 67 64 64 59 50 50 48 47 45 60
64 71 71 70 72 75 72 73 75 73 71 70 71 70 71 69 71 64 72 73 73 72 71 71 70 65 66 67 68 67 68 70 69 64 63 62 61 62 61 54 46 44 44 47
67 70 66 70 69 74 74 73 72 74 73 72 71 70 67 67 65 67 66 68 67 70 70 65 66 67 68 68 68 69 68 56 70 69 67 62 66 65 63 66 67 64 47 54
70 73 69 69 71 71 73 74 72 71 71 70 70 68 64 63 67 66 67 67 66 66 69 70 70 71 71 70 69 69 70 71 70 70 70 67 65 67 70 69 69 65 63 56
68 70 70 68 67 69 71 72 71 70 71 71 71 71 69 72 71 70 67 67 68 68 68 70 70 69 70 70 69 69 67 61 63 70 69 70 70 69 67 67 67 66 67 67
63 61 63 64 66 69 70 72 72 70 71 72 71 71 71 71 69 68 68 69 70 71 71 71 70 70 70 70 70 72 72 68 62 71 72 71 70 70 68 67 68 67 67 67
64 68 69 68 67 67 67 68 69 69 68 68 69 70 70 70 68 66 68 69 70 69 71 70 70 69 69 69 68 70 71 71 68 71 72 71 70 69 67 68 69 67 69 62
64 64 65 66 68 67 66 65 66 66 66 65 67 67 68 68 69 69 69 69 68 68 67 69 60 66 68 65 68 72 72 71 70 70 71 62 69 69 68 68 70 67 64 59
63 64 64 64 65 65 63 64 65 65 65 66 66 66 66 66 67 67 67 67 68 69 68 68 69 69 68 65 62 72 71 72 71 71 71 71 69 68 68 61 65 63 57 54
61 62 61 61 60 61 61 62 63 62 63 64 63 63 64 65 67 67 65 66 64 63 69 62 70 71 71 68 69 73 72 70 70 69 69 70 68 70 68 65 65 57 55 54
61 61 61 60 60 58 58 60 60 61 61 61 61 63 63 61 63 63 65 66 65 54 68 71 72 61 68 60 73 72 71 71 71 71 70 70 70 68 62 66 66 58 60 63
59 59 61 60 58 58 59 59 59 60 60 60 61 62 61 63 65 65 64 64 68 59 70 71 58 55 55 71 72 72 72 71 71 71 70 68 67 61 60 62 57 57 60 64
60 59 59 60 61 60 58 58 60 60 60 61 60 62 62 61 60 60 61 56 50 59 69 67 61 53 57 72 72 72 72 71 68 67 62 54 60 65 68 67 67 67 66 63
60 60 60 61 61 60 59 60 62 62 62 60 60 62 61 60 64 66 67 66 51 62 69 51 52 52 73 73 74 72 72 72 72 72 69 66 64 61 64 67 67 66 66 66
61 63 63 61 61 63 64 64 63 63 64 58 58 58 59 63 57 63 66 61 67 59 70 70 70 68 68 73 73 74 73 70 69 72 69 69 70 69 68 68 67 67 67 66
63 54 66 66 66 66 66 65 66 65 64 65 64 65 63 61 61 62 57 65 69 69 68 68 69 60 66 72 72 72 72 72 63 71 70 69 69 69 68 68 68 67 67 67

GFSNGP_sfc_temp_162.txt.gz
Temp
81 85 86 84 82 83 80 82 78 83 84 89 93 95 98 101 101 98 95 94 94 92 91 91 91 91 92 92 92 92 89 88 87 88 88 84 82 83 83 83 79 81 81 80
76 82 83 80 83 85 84 84 85 86 85 97 97 100 98 98 97 96 95 96 95 92 90 89 88 89 90 90 90 90 88 88 88 87 81 80 79 80 79 78 81 80 80 81
68 79 79 72 80 83 84 87 86 80 87 94 94 94 96 97 99 99 100 100 96 93 90 89 89 89 89 90 90 88 87 88 86 81 77 76 76 77 76 78 80 79 80 81
71 74 62 81 91 89 85 87 89 88 89 92 92 97 99 99 96 96 99 100 99 95 92 90 91 90 91 90 88 87 86 85 78 76 76 75 74 76 79 79 78 79 79 80
67 69 74 80 83 85 82 81 90 89 90 93 95 97 94 98 99 96 98 99 97 95 92 90 91 90 88 87 87 86 85 82 78 77 77 75 75 78 79 78 78 78 79 79
68 63 61 77 88 93 92 75 92 92 90 92 94 86 91 99 101 96 94 94 92 94 92 90 88 88 87 85 85 85 85 83 80 79 78 76 79 78 78 78 78 81 79 79
64 64 72 85 91 93 72 78 94 95 94 93 90 94 93 89 88 89 90 90 91 90 88 85 87 87 85 85 84 85 85 83 81 81 79 79 75 75 75 76 78 78 77 77
65 62 59 86 84 78 86 93 90 91 93 94 94 86 85 86 85 85 86 87 88 85 83 85 86 87 85 82 84 85 84 83 81 81 81 77 74 76 76 77 76 76 76 77
71 70 82 88 85 91 84 85 87 85 88 90 88 84 84 83 83 84 85 86 86 84 81 82 84 84 79 79 81 80 80 80 77 76 78 78 77 75 78 76 79 78 78 76
74 79 83 85 89 85 85 85 86 87 87 87 83 83 82 81 81 81 82 81 83 81 78 78 79 80 79 79 78 78 75 76 75 76 74 76 81 81 81 80 80 79 76 75
73 81 83 84 83 86 83 84 85 87 86 84 82 81 80 79 79 80 80 81 82 79 78 77 78 79 80 79 79 76 77 77 77 78 78 75 73 71 74 72 68 77 77 80
72 82 78 83 83 84 81 82 84 83 82 84 83 82 82 80 80 79 78 79 79 79 78 78 78 77 77 79 80 78 75 73 72 72 73 76 71 63 49 50 47 47 47 58
75 76 84 84 82 84 82 83 84 84 84 82 83 81 79 78 78 71 79 79 78 78 78 77 76 74 76 76 75 74 72 71 71 74 74 72 68 71 72 57 45 44 46 49
77 76 76 79 78 83 83 83 80 83 82 82 81 81 80 77 77 78 78 78 78 76 74 73 75 74 74 71 73 71 70 59 75 76 75 75 74 75 75 68 70 61 51 56
74 79 81 81 81 81 82 82 80 79 80 79 81 80 79 77 76 76 76 78 77 75 71 73 72 71 72 76 75 75 78 80 81 80 79 75 76 75 76 74 69 68 68 58
77 79 79 77 77 79 81 81 79 78 79 79 78 78 78 78 76 76 76 75 75 72 75 76 72 76 76 76 75 77 75 62 69 78 76 77 75 76 73 70 73 73 71 71
71 71 75 75 76 78 79 81 80 80 79 79 78 79 79 78 77 76 76 76 77 77 78 77 76 78 78 78 78 82 81 76 65 81 81 80 79 77 73 73 74 74 74 71
77 77 78 78 76 76 76 77 78 77 76 77 78 78 78 78 75 75 76 77 77 77 78 76 76 76 76 77 77 82 84 82 78 80 79 79 79 77 75 74 72 73 74 66
75 73 76 76 76 75 74 74 74 74 75 77 77 76 76 76 76 76 76 76 75 73 73 74 63 73 75 68 72 84 83 81 80 80 81 67 76 75 74 73 71 73 75 70
66 69 70 71 72 73 71 73 74 73 74 74 74 74 73 74 75 75 76 75 76 78 76 73 75 75 74 68 65 83 82 81 81 79 78 75 74 73 74 67 73 74 73 66
61 63 65 66 66 68 70 71 71 70 71 72 71 71 72 72 74 74 73 75 73 71 74 66 79 80 79 74 74 82 80 79 79 79 77 73 73 72 75 72 68 66 67 62
63 63 63 64 64 65 68 69 69 69 69 69 69 71 70 70 71 72 74 75 75 55 72 79 79 63 74 60 81 77 76 76 76 78 78 77 71 69 73 72 69 66 59 59
63 63 65 65 65 65 68 68 68 68 67 66 65 66 65 68 72 72 68 71 75 65 78 78 59 57 59 76 80 77 76 76 74 72 75 73 73 75 74 73 72 71 64 64
64 64 65 68 69 67 64 65 67 67 67 66 66 67 68 69 70 74 73 59 54 62 76 69 63 55 51 79 79 78 78 76 75 76 73 59 75 74 70 69 64 66 71 71
64 66 67 66 66 66 66 68 69 68 68 67 67 69 69 71 71 70 71 69 54 64 75 51 54 55 77 79 79 79 78 79 78 76 73 72 71 72 76 76 75 74 74 74
68 69 69 68 69 71 72 73 71 71 70 65 69 68 70 70 67 72 72 67 73 63 76 73 75 76 80 80 80 81 79 77 77 79 76 76 75 75 74 75 74 74 74 74
70 58 72 72 74 74 74 71 72 71 70 72 71 70 66 70 68 64 61 73 74 76 76 77 77 71 79 80 79 79 80 79 67 78 78 77 76 76 76 75 74 75 74 73

GFSNGP_sfc_temp_165.txt.gz
Temp
85 88 90 87 85 87 85 86 81 86 87 93 96 99 100 103 102 103 104 103 101 100 100 100 98 98 99 100 98 97 93 91 90 90 90 89 85 84 84 82 84 84 82 84
80 87 87 85 89 88 88 89 88 89 87 100 101 103 101 101 101 101 102 103 102 99 98 96 95 95 96 96 96 95 92 90 90 90 89 86 85 85 84 81 78 81 83 83
71 83 83 76 84 88 88 90 90 82 90 98 97 98 99 100 102 102 103 105 104 101 96 94 94 94 94 94 94 92 90 90 89 89 86 85 84 80 79 77 79 79 80 81
73 77 65 83 94 93 89 90 93 92 94 96 97 100 102 103 101 101 104 104 105 105 99 96 96 94 94 94 91 90 89 89 88 85 83 82 80 77 76 76 77 76 78 81
69 71 78 83 87 88 85 84 94 92 94 97 99 99 97 103 104 103 104 104 103 106 101 96 95 94 93 91 90 90 89 86 82 82 80 77 76 77 78 77 78 79 80 80
72 67 64 81 92 97 94 79 94 95 93 95 96 87 93 100 104 104 104 103 101 104 100 96 94 93 91 89 89 88 87 83 81 81 80 79 79 79 79 79 77 82 79 80
68 68 76 89 94 97 74 78 95 97 96 95 92 96 99 100 95 97 98 98 99 99 96 93 93 92 89 88 87 89 88 86 83 83 81 81 80 80 77 77 78 78 78 79
69 65 63 90 90 80 88 95 96 97 98 97 98 99 95 93 92 93 94 94 95 93 90 90 90 89 87 86 87 89 87 85 84 83 82 78 77 76 78 78 76 76 77 77
72 72 84 90 88 94 96 90 93 92 95 96 96 93 92 90 90 90 91 91 91 88 86 88 88 87 82 83 85 85 83 81 80 77 76 76 74 77 74 78 76 76 73 73
75 80 83 87 92 94 96 91 94 96 95 96 96 92 89 89 88 88 87 86 87 85 83 82 83 82 81 81 81 79 79 78 80 78 78 78 79 81 74 73 73 72 68 74
75 80 84 87 90 92 95 94 92 95 94 94 92 89 88 86 84 85 83 84 84 81 80 80 81 81 82 82 83 82 81 80 79 75 76 71 63 60 69 61 62 70 77 73
72 81 82 84 91 94 93 91 91 92 91 91 90 86 85 83 83 83 83 83 81 80 80 80 80 80 81 83 82 81 81 82 81 79 71 70 68 69 49 51 49 50 51 67
71 78 81 82 89 94 92 90 92 91 89 87 87 86 85 82 82 74 81 81 80 79 80 79 79 78 80 81 82 80 80 77 75 74 74 71 72 71 68 58 49 46 49 51
73 77 75 81 86 90 91 90 84 90 89 88 86 85 83 81 80 81 80 81 82 81 80 79 78 77 80 79 78 78 78 63 73 73 74 73 74 73 72 71 69 68 53 54
72 80 80 83 88 88 90 89 86 85 85 83 85 83 83 81 79 79 80 81 80 79 78 78 77 76 78 79 78 74 75 77 79 82 82 76 76 77 79 72 73 71 66 57
72 74 83 82 85 86 87 85 84 83 84 84 83 82 82 81 79 80 80 81 78 77 78 77 76 78 78 79 79 80 78 67 72 79 77 76 76 76 74 74 72 72 71 69
68 65 78 82 82 83 84 86 85 84 83 82 81 81 81 80 79 78 79 81 79 79 79 78 78 80 81 81 81 84 82 78 68 78 78 78 74 79 75 71 70 74 74 72
67 62 81 84 82 83 84 85 84 83 81 81 81 81 80 79 77 77 79 80 80 79 81 80 80 79 79 80 80 85 85 83 81 83 83 76 76 75 72 70 75 74 74 67
66 66 75 79 82 81 81 81 80 80 80 81 81 79 79 79 79 79 80 79 78 76 76 78 68 75 78 72 72 85 86 86 84 83 84 73 82 78 78 78 77 77 73 71
68 72 73 73 75 76 77 79 79 78 79 79 79 78 77 78 78 78 78 77 79 80 78 77 77 79 78 73 69 85 85 85 85 84 84 82 75 77 71 65 76 76 73 73
63 69 72 73 74 75 76 76 76 74 75 77 76 76 76 77 78 78 76 78 76 75 78 67 80 83 82 76 78 85 84 83 85 82 79 76 77 76 70 71 72 71 72 64
62 63 64 66 68 69 71 73 73 73 73 74 75 76 75 75 76 77 79 78 78 56 77 81 80 64 76 65 80 81 81 79 76 75 74 68 70 76 73 74 73 72 68 72
60 62 64 65 65 66 69 69 70 71 69 70 71 71 75 77 79 76 74 77 78 71 79 75 61 61 61 77 77 79 77 75 75 78 72 70 74 73 71 70 72 74 72 70
59 62 64 66 67 66 65 67 69 69 69 69 69 71 72 74 76 78 76 62 58 66 76 72 66 57 51 75 78 77 74 73 72 71 70 61 76 77 77 76 72 75 72 65
63 65 65 65 66 67 68 69 71 71 71 71 70 72 74 76 72 76 74 73 58 67 76 54 56 57 74 82 82 81 74 77 76 77 78 78 78 77 75 75 74 73 73 75
67 67 67 69 72 73 74 75 73 71 73 71 73 76 76 76 76 73 74 67 70 64 75 74 77 77 80 81 82 82 81 80 79 80 78 78 79 74 74 73 76 77 78 78
70 59 69 71 75 75 76 74 74 74 74 72 72 74 74 77 72 73 64 76 77 74 71 77 79 74 83 81 81 81 80 81 66 81 81 80 78 79 79 78 78 78 78 77

GFSNGP_sfc_temp_168.txt.gz
Temp
84 87 88 87 85 86 83 85 79 84 84 91 93 97 99 100 98 100 100 101 99 97 97 98 94 93 95 95 93 92 89 87 86 87 87 87 86 86 86 84 82 77 76 77
79 86 86 83 88 87 87 87 86 87 86 98 99 101 100 99 99 97 99 101 102 98 97 97 96 94 94 93 91 91 89 87 87 86 86 86 85 84 83 82 80 80 76 77
71 82 82 75 83 87 87 90 88 81 88 96 95 96 98 99 100 99 99 100 99 96 93 91 93 93 93 93 92 89 88 88 87 86 85 84 83 82 82 80 80 78 78 77
72 75 63 82 92 92 89 91 93 91 93 94 95 97 100 102 100 100 102 102 101 101 95 93 94 92 93 92 90 89 87 87 86 85 85 84 83 82 80 79 77 77 77 78
68 70 76 81 87 87 85 84 94 93 94 96 98 99 95 102 102 102 102 101 100 101 97 92 92 91 90 89 88 87 86 86 86 84 83 82 80 79 78 76 75 75 76 77
71 66 62 79 90 97 94 77 94 95 93 95 96 85 91 100 102 100 100 100 99 103 101 93 91 91 89 87 87 86 87 84 83 82 80 77 77 76 77 77 75 75 77 75
69 67 74 87 93 96 74 78 95 96 95 94 89 92 97 99 98 95 98 99 101 100 94 90 90 90 87 87 85 86 82 82 80 80 77 76 76 77 75 74 75 75 74 74
68 64 62 91 90 80 82 90 94 96 97 93 93 96 96 96 92 94 95 96 98 92 89 89 89 88 84 81 82 84 83 81 79 77 78 79 75 74 75 74 73 73 74 73
71 71 83 89 87 90 91 92 91 91 94 95 95 94 93 90 91 91 91 92 92 88 86 87 86 84 82 81 82 81 81 80 78 79 78 75 73 75 75 76 75 73 70 71
70 77 81 85 90 91 93 92 94 94 94 95 93 95 91 89 89 89 88 87 88 86 83 79 80 80 82 82 81 79 78 76 76 75 75 77 77 77 75 75 73 70 70 67
72 78 81 86 87 89 91 93 93 96 94 94 95 92 90 87 85 85 84 84 84 80 79 78 80 80 81 81 81 78 78 77 76 76 76 69 64 65 73 60 62 68 69 68
68 67 70 78 87 91 89 90 91 93 92 95 95 89 88 85 84 82 81 81 80 79 79 80 80 80 81 81 81 79 78 79 79 79 74 70 66 60 50 50 48 50 52 63
69 74 73 75 81 86 87 89 94 94 93 91 90 87 84 81 81 73 80 79 78 78 78 78 78 78 80 81 81 81 80 80 78 76 75 71 67 64 60 55 48 46 48 49
72 73 70 75 75 81 84 91 87 93 91 87 85 84 82 79 78 78 78 79 79 78 77 78 77 77 79 80 78 77 76 65 77 77 74 72 72 68 68 66 63 62 50 51
71 76 76 78 78 80 79 91 89 87 86 84 84 82 80 79 78 78 78 79 79 78 76 76 75 76 79 78 77 77 78 77 77 77 76 73 75 71 72 72 67 62 60 55
73 77 77 74 76 79 80 89 87 85 85 83 82 80 81 79 78 78 78 78 75 74 75 75 75 77 78 78 77 78 76 68 72 79 77 75 74 71 68 67 67 65 64 64
69 68 71 71 73 68 71 88 87 84 83 82 82 81 79 78 77 77 77 79 77 76 76 77 76 79 79 79 80 81 80 78 67 80 80 79 77 76 74 68 71 69 68 66
75 74 74 74 72 69 67 86 84 84 82 82 80 79 77 76 74 75 76 77 77 77 78 78 78 78 79 80 79 83 81 80 79 80 73 75 77 69 71 74 73 71 71 64
74 69 72 73 69 65 70 82 79 80 80 80 79 77 78 77 76 77 78 77 76 74 75 77 70 76 78 72 72 82 84 81 81 79 71 69 75 67 72 67 67 69 69 68
68 69 70 73 68 70 69 73 79 78 80 80 79 77 76 77 78 77 77 76 77 78 76 75 76 77 77 75 70 80 84 83 83 77 79 75 76 73 72 64 66 69 70 69
66 70 64 64 68 69 73 74 72 72 74 79 76 75 75 76 77 77 75 74 73 73 77 69 77 77 79 76 77 82 78 81 80 72 71 77 76 72 69 68 70 69 72 72
61 61 64 64 65 66 68 69 73 74 74 75 77 76 75 75 75 77 77 73 76 63 76 78 79 65 73 65 82 81 78 79 78 78 77 75 70 65 68 65 68 72 68 66
59 59 62 62 60 60 64 65 66 67 68 71 72 73 74 75 77 74 72 73 75 68 77 73 62 62 62 77 79 77 78 77 77 75 72 74 69 64 66 69 71 71 69 70
57 58 60 61 61 62 61 63 65 66 68 69 70 69 73 74 73 76 72 61 58 68 74 68 64 59 53 78 78 78 77 75 76 76 75 59 69 72 73 70 69 68 71 68
57 57 58 58 58 57 60 66 67 67 68 67 69 72 71 72 70 72 72 70 60 68 73 55 58 58 72 76 78 77 75 76 75 73 68 69 70 68 68 69 70 73 71 71
56 56 57 58 58 60 59 59 63 65 68 67 68 69 71 72 72 73 73 68 73 66 75 72 75 73 78 81 80 77 78 77 76 77 76 72 70 76 75 75 73 72 72 73
61 55 62 65 69 70 72 69 68 67 66 69 69 72 74 74 70 69 63 71 71 67 73 76 77 73 73 78 80 79 79 79 66 79 79 78 76 69 72 70 71 75 75 76

GFSNGP_sfc_temp_171.txt.gz
Temp
74 77 78 75 78 78 71 67 63 67 70 73 76 81 85 86 86 87 86 84 84 83 83 83 86 89 90 89 89 88 85 83 82 83 82 82 79 79 79 78 78 76 74 72
66 78 78 75 79 80 79 78 70 72 71 79 81 81 86 85 84 84 85 86 85 85 85 84 82 80 85 83 84 85 83 83 82 81 80 79 78 78 78 78 75 74 72 71
55 69 70 65 74 75 77 81 79 68 71 79 79 81 83 84 83 84 86 86 84 84 83 81 81 82 81 81 82 84 83 82 80 80 77 78 78 78 77 76 75 73 73 73
55 59 52 67 80 80 77 80 79 78 79 80 79 79 83 84 85 87 87 85 85 82 81 79 81 80 81 80 79 79 79 79 79 79 78 77 77 77 75 75 75 74 72 73
53 54 62 72 77 75 71 71 79 76 79 82 84 82 75 86 86 86 86 83 82 82 80 79 80 80 79 78 78 78 77 78 79 79 77 76 75 74 74 74 73 71 71 70
54 51 52 65 80 86 81 62 80 81 80 80 79 68 70 84 87 85 87 84 83 83 80 79 78 80 78 77 77 76 77 77 78 77 76 75 75 74 74 74 72 72 69 68
54 53 61 75 81 83 61 62 76 81 78 78 75 73 80 81 79 80 82 84 82 79 81 79 79 81 77 77 76 77 77 77 76 75 74 75 75 73 72 70 70 69 69 68
54 52 51 77 77 66 68 72 77 77 77 77 76 77 79 78 79 80 81 79 81 78 76 77 78 80 76 76 76 77 76 75 74 73 74 74 72 71 70 69 67 67 68 65
58 58 66 71 69 72 74 73 76 76 79 80 79 77 76 75 76 77 77 77 79 78 76 76 77 77 75 75 76 75 75 74 72 72 71 71 71 69 71 68 68 67 66 63
57 64 65 70 74 76 76 75 79 81 82 82 77 78 76 76 75 76 77 77 76 74 73 73 76 77 77 77 76 75 72 72 72 71 70 70 71 69 68 67 66 66 65 64
56 60 64 66 67 69 74 78 79 81 83 82 79 77 75 74 74 74 74 75 75 73 72 71 74 75 76 76 75 72 71 71 71 70 69 60 54 52 61 54 55 65 65 63
49 58 58 61 68 73 73 75 76 76 79 82 78 77 76 73 74 74 73 73 73 73 72 72 75 75 75 74 73 72 70 69 69 68 64 60 59 56 51 48 47 47 53 60
56 63 63 66 69 74 71 73 76 75 73 76 77 76 75 72 71 67 71 71 70 69 70 70 72 70 72 72 72 71 69 69 68 68 68 65 61 58 55 53 49 46 46 47
63 62 60 65 65 72 73 75 75 75 77 77 75 74 73 71 70 70 68 69 70 70 68 67 67 67 69 69 68 67 67 64 67 67 67 63 64 63 58 58 58 54 48 48
61 65 65 69 70 71 73 74 69 71 75 74 74 72 72 70 68 68 69 70 69 68 66 66 66 66 68 69 68 67 66 66 66 66 65 64 64 62 64 61 54 54 52 49
62 66 68 66 68 68 70 69 65 66 74 73 72 72 71 69 69 68 69 69 68 65 64 65 65 67 68 68 67 66 66 66 66 66 65 64 64 63 61 57 57 54 52 51
58 59 63 63 64 65 67 68 66 66 74 73 71 71 70 70 68 67 66 67 66 65 66 66 66 68 69 68 67 66 66 65 65 68 66 65 64 63 62 59 58 57 55 55
64 66 68 66 63 65 66 66 66 69 68 72 72 71 69 67 65 64 67 68 66 66 67 67 68 68 68 68 68 68 67 65 65 66 68 68 65 65 66 63 60 59 57 56
66 67 69 66 65 64 65 65 65 70 68 72 70 68 68 66 66 66 67 67 65 64 64 67 69 69 65 65 65 65 67 68 67 65 67 65 66 63 65 63 66 62 59 57
64 66 65 65 66 67 64 64 65 65 70 71 69 68 66 66 67 67 66 65 67 67 66 66 67 66 66 65 66 65 65 69 71 69 65 65 64 62 63 59 63 63 62 61
63 64 63 64 63 65 65 65 66 64 64 69 69 67 66 66 67 66 64 62 65 66 66 65 66 66 65 65 66 67 67 67 67 64 65 68 67 65 65 62 64 64 64 61
60 60 61 62 61 61 62 63 63 65 67 68 70 68 67 66 66 66 66 66 65 62 64 65 65 65 65 64 65 67 68 69 66 65 64 64 66 63 63 61 65 66 60 59
58 59 60 59 59 59 61 61 62 62 63 63 64 64 64 65 65 63 63 65 65 62 64 63 60 62 65 66 66 67 68 67 65 64 64 62 61 60 62 61 59 62 61 60
55 57 57 59 60 59 57 59 60 61 61 62 62 63 61 61 63 62 62 59 57 63 63 59 59 61 61 65 67 67 66 65 64 64 63 58 61 62 66 64 62 64 62 60
54 56 57 57 56 56 57 58 59 59 60 60 61 63 64 64 61 61 61 61 59 63 63 55 58 58 62 65 66 65 65 64 64 63 62 62 64 61 62 64 65 64 63 59
54 53 54 56 56 56 56 57 56 56 58 59 60 62 63 64 62 63 63 62 66 63 64 61 62 61 64 66 67 67 65 65 64 64 65 66 62 64 64 64 64 62 60 59
55 54 55 55 57 58 59 58 57 57 58 62 61 63 65 64 62 61 63 65 65 64 64 64 65 64 65 67 70 68 66 64 61 66 68 65 67 63 63 62 61 61 60 60

GFSNGP_sfc_temp_174.txt.gz
Temp
70 69 69 68 71 71 62 63 62 65 64 68 76 77 80 79 79 79 81 81 85 86 85 83 83 85 86 86 85 85 80 80 79 80 79 79 78 77 77 77 77 76 73 70
66 72 70 70 72 72 73 70 62 69 67 73 77 79 80 81 82 80 82 83 81 80 82 83 86 85 86 85 83 85 81 80 81 79 78 77 77 77 78 78 75 74 71 70
60 64 66 58 66 70 70 71 72 62 69 74 74 78 78 79 83 79 83 83 80 81 82 83 79 83 80 80 79 82 82 79 78 77 77 77 78 77 77 75 72 72 72 72
49 58 50 67 73 76 73 75 74 72 72 75 76 77 81 82 81 81 83 81 79 78 77 75 75 74 75 75 75 76 74 76 77 77 77 77 77 76 74 73 72 72 71 71
50 54 57 65 73 72 70 66 72 71 74 76 77 76 72 80 82 82 80 81 80 80 76 75 76 75 75 74 75 76 75 75 77 78 77 76 75 74 73 73 72 71 70 68
47 49 48 59 74 81 74 59 74 71 75 77 72 66 68 77 81 81 80 79 80 78 76 76 74 75 75 73 74 74 75 76 77 78 77 75 75 73 72 72 69 70 69 65
47 48 56 68 75 76 59 59 72 72 70 69 71 72 75 78 75 76 77 79 77 76 78 78 73 74 73 73 73 75 76 76 76 76 75 74 72 71 71 71 71 69 66 63
47 46 48 69 71 61 64 67 71 71 72 71 70 74 73 75 74 74 74 74 74 73 72 73 75 76 72 73 74 75 74 73 72 72 74 73 71 71 71 69 67 65 64 61
48 49 57 60 58 62 64 64 69 72 74 75 72 69 71 69 70 71 72 72 73 74 73 73 74 76 73 73 74 73 72 72 71 72 72 72 73 69 67 66 65 64 63 60
47 51 54 60 63 65 66 68 70 72 73 76 71 70 69 71 71 71 70 70 72 72 71 71 73 74 74 73 74 73 71 71 71 70 67 67 67 66 66 65 64 64 62 58
47 52 56 59 61 63 65 70 70 72 73 72 72 70 70 69 69 69 70 70 71 71 71 72 73 73 74 74 74 72 71 70 69 65 60 56 51 54 59 56 60 64 63 60
42 49 50 54 60 63 64 67 69 69 70 72 72 70 70 68 69 69 69 70 69 69 70 70 72 72 72 74 74 71 70 69 66 63 61 61 59 55 50 48 46 49 53 59
48 55 57 58 61 65 64 67 69 68 70 67 70 71 70 67 67 64 69 69 69 69 70 71 71 71 72 72 71 70 68 67 65 65 64 62 61 58 58 54 47 45 45 47
55 58 56 60 59 64 66 69 69 69 69 70 70 69 69 67 66 67 66 66 67 67 67 69 71 69 69 68 69 68 67 61 66 64 65 63 63 61 61 60 58 52 48 47
57 60 57 60 61 63 65 67 66 65 65 66 69 69 69 66 65 65 65 67 67 66 65 67 66 63 65 66 66 66 66 65 66 64 62 60 59 57 57 54 53 52 53 51
56 57 59 59 60 62 62 63 61 63 65 64 65 67 67 67 66 65 65 67 66 63 62 62 62 63 65 65 64 64 64 62 63 64 63 61 59 57 53 52 50 50 51 50
55 54 56 56 59 59 60 61 62 63 64 64 65 67 67 66 65 64 62 62 62 62 62 62 63 64 64 64 63 63 63 63 63 63 63 62 61 58 55 54 53 51 51 51
57 58 61 59 59 59 59 62 63 64 63 67 65 65 67 66 63 62 63 63 62 62 62 63 64 64 65 65 64 63 62 62 62 62 62 61 61 58 56 55 54 53 51 52
60 60 61 62 62 60 58 60 61 64 65 66 64 63 63 65 65 64 64 63 61 61 62 64 64 64 63 63 63 62 62 63 62 62 63 61 62 59 59 58 57 54 55 53
58 60 62 62 62 60 60 60 63 63 65 63 63 64 64 64 65 66 65 62 61 62 62 63 63 62 62 63 64 62 64 64 63 61 62 64 62 61 61 57 59 57 58 54
54 57 59 60 62 60 60 60 61 62 62 62 61 61 62 63 66 65 63 63 62 63 63 63 63 61 60 62 63 62 62 63 63 62 63 61 61 61 62 63 61 59 60 58
53 53 59 59 57 58 60 58 60 61 62 62 62 62 63 62 64 65 65 66 62 59 61 62 62 62 62 63 63 62 61 61 60 61 61 62 63 64 59 57 60 61 61 59
55 57 58 58 57 58 60 60 59 59 59 59 60 61 62 62 63 62 60 61 64 62 66 63 60 60 62 62 63 63 64 64 63 63 61 60 61 61 61 61 61 59 57 58
56 57 57 58 58 57 56 58 59 59 59 60 60 61 60 59 58 59 60 57 55 61 63 60 60 61 60 63 63 63 62 62 62 62 61 55 57 56 57 57 59 61 62 59
54 55 56 56 55 55 56 57 58 58 58 58 59 60 61 61 60 58 60 59 57 61 61 56 58 59 63 63 64 63 62 61 60 60 60 58 58 58 59 60 62 62 62 62
53 53 54 54 54 55 56 56 55 56 56 56 56 58 60 60 60 60 60 59 60 59 61 59 61 61 60 62 63 63 62 60 60 60 59 59 60 59 60 60 60 62 62 60
54 52 54 54 54 54 54 55 55 55 56 56 56 58 59 60 59 60 59 61 60 61 61 60 61 61 61 61 61 64 63 61 58 61 62 62 61 60 62 64 63 61 57 57